BEIDOU-3 IGSO-3

Last updated on Tue Sep 01 2026 00:04:27 GMT+0000 (Coordinated Universal Time)

1 44709U 19073A 26243.50237293 -.00000156 00000+0 00000+0 0 9993 2 44709 54.6728 280.0769 0046840 197.7740 162.1531 1.00267582 25217
UTC large
Height (km)
Speed (km/s)
/
Latitude / Longitude
Inclination (degrees)
Orbital Period (minutes)
Azimuth
Elevation
Range (km)
Doppler Factor

Next 0 passes for location: London (51.5072 / 0.1276)

No passes found over London.
BEIDOU-3 IGSO-3